Content
SEND FEEDBACK

Daily
Averages
Monthly
Summary
United States of America

FAIRBURY, ILLINOIS


Home > North America > United States > Illinois
Elevation: 690 feet     Latitude: 40 44N     Longitude: 088 31W

WEATHER
 
SELECT A DAY
Number of Records: 327,236;   Date Range: 8/23/01 - 9/30/14
 
SHARE

PRINT THIS DATA

[ ← Previous Day ]
WEATHER ALMANAC - JANUARY 31, 2013
[ Next Day → ]
[ °C ]   °F
Weather ElementAverageHighLow
Temperature16 °F23 °F (4:55 am)6.8 °F (9:55 pm)
Dewpoint8.5 °F17.6 °F (4:15 am)-2.2 °F (11:15 pm)
Humidity72.7 %86 % (1:35 am)67 % (5:35 pm)
Barometer29.95 in30.24 in (11:55 pm)29.73 in (12:35 am)
Wind Speed24 mph33.4 mph (7:35 pm)
Wind Gust39.1 mph (7:35 pm)
Weather ElementAverage
Visibility8.8 mi
Wind DirectionWNW (282 °)

Weather ElementTotal
Precipitation---
Heating Degree Days50.1 (Base 65)
Averaged from 71 records on January 31, 2013
WEATHER CONDITIONS BREAKOUT
WIND DIRECTION BREAKOUT
WEATHER BY HOUR - JANUARY 31, 2013
[ °C ]   °F
Local TimeTemperatureDewpointHumidityBarometerVisibilityWind DirectionWind SpeedGust SpeedPrecipitationEventsConditions
12:35 AM21.2 °F15.8 °F80 %29.73 in3.0 miWNW (290°)27.6 mph35.7 mphSnowLight Snow
12:55 AM19.4 °F12.2 °F74 %29.75 in10.0 miWNW (290°)27.6 mph36.8 mphSnowLight Snow
1:15 AM19.4 °F14.0 °F80 %29.75 in7.0 miWest (280°)27.6 mph31.1 mphSnowLight Snow
1:35 AM19.4 °F15.8 °F86 %29.76 in7.0 miWest (270°)26.5 mph34.5 mphSnowLight Snow
1:55 AM19.4 °F14.0 °F80 %29.77 in10.0 miWest (270°)26.5 mph33.4 mphSnowLight Snow
2:15 AM19.4 °F14.0 °F80 %29.78 in7.0 miWest (280°)21.9 mph29.9 mphSnowLight Snow
2:35 AM19.4 °F12.2 °F74 %29.79 in10.0 miWNW (290°)24.2 mph28.8 mphSnowLight Snow
2:55 AM19.4 °F12.2 °F74 %29.78 in10.0 miWest (280°)26.5 mph32.2 mphOvercast
3:15 AM19.4 °F15.8 °F86 %29.79 in10.0 miWest (280°)18.4 mph23.0 mphSnowLight Snow
3:35 AM19.4 °F15.8 °F86 %29.79 in10.0 miWest (280°)19.6 mph31.1 mphSnowLight Snow
3:55 AM19.4 °F15.8 °F86 %29.79 in10.0 miWest (280°)20.7 mph25.3 mphOvercast
4:15 AM21.2 °F17.6 °F86 %29.79 in10.0 miWest (270°)19.6 mphSnowLight Snow
4:35 AM21.2 °F17.6 °F86 %29.79 in10.0 miWest (270°)19.6 mph25.3 mphOvercast
4:55 AM23.0 °F17.6 °F80 %29.78 in10.0 miWest (280°)20.7 mph27.6 mphSnowLight Snow
5:15 AM23.0 °F15.8 °F74 %29.78 in10.0 miWest (280°)23.0 mph28.8 mphOvercast
5:35 AM23.0 °F15.8 °F74 %29.79 in10.0 miWest (280°)18.4 mph25.3 mphOvercast
5:55 AM21.2 °F15.8 °F80 %29.79 in10.0 miWest (280°)26.5 mph31.1 mphOvercast
6:15 AM21.2 °F14.0 °F74 %29.80 in10.0 miWest (280°)25.3 mph32.2 mphMostly Cloudy
6:35 AM19.4 °F12.2 °F74 %29.82 in10.0 miWest (280°)18.4 mph26.5 mphScattered Clouds
6:55 AM19.4 °F12.2 °F74 %29.83 in10.0 miWest (280°)21.9 mph32.2 mphClear
7:15 AM19.4 °F12.2 °F74 %29.84 in10.0 miWNW (290°)23.0 mph33.4 mphClear
7:35 AM17.6 °F10.4 °F73 %29.86 in10.0 miWNW (290°)24.2 mph29.9 mphScattered Clouds
7:55 AM17.6 °F10.4 °F73 %29.87 in10.0 miWest (270°)27.6 mphClear
8:15 AM17.6 °F10.4 °F73 %29.87 in10.0 miWest (270°)24.2 mph29.9 mphScattered Clouds
8:35 AM17.6 °F10.4 °F73 %29.88 in10.0 miWest (280°)23.0 mph26.5 mphClear
8:55 AM17.6 °F10.4 °F73 %29.88 in10.0 miWest (270°)19.6 mphScattered Clouds
9:15 AM19.4 °F10.4 °F68 %29.89 in10.0 miWest (270°)21.9 mph27.6 mphScattered Clouds
9:35 AM19.4 °F10.4 °F68 %29.90 in10.0 miWest (270°)21.9 mph26.5 mphMostly Cloudy
9:55 AM19.4 °F10.4 °F68 %29.91 in10.0 miWNW (290°)23.0 mph27.6 mphMostly Cloudy
10:15 AM19.4 °F10.4 °F68 %29.92 in10.0 miWest (280°)23.0 mph28.8 mphOvercast
10:35 AM19.4 °F10.4 °F68 %29.92 in10.0 miWest (280°)20.7 mph25.3 mphOvercast
10:55 AM19.4 °F10.4 °F68 %29.93 in7.0 miWest (270°)25.3 mph31.1 mphOvercast
11:15 AM19.4 °F10.4 °F68 %29.94 in7.0 miWest (280°)19.6 mph27.6 mphSnowLight Snow
11:35 AM17.6 °F10.4 °F73 %29.93 in10.0 miWest (280°)20.7 mph26.5 mphOvercast
11:55 AM19.4 °F12.2 °F74 %29.93 in10.0 miWest (270°)23.0 mph27.6 mphOvercast
12:15 PM19.4 °F10.4 °F68 %29.94 in10.0 miWest (270°)23.0 mph28.8 mphOvercast
12:35 PM19.4 °F10.4 °F68 %29.94 in7.0 miWest (270°)24.2 mphOvercast
12:55 PM19.4 °F10.4 °F68 %29.94 in10.0 miWest (280°)26.5 mph31.1 mphOvercast
1:15 PM19.4 °F10.4 °F68 %29.94 in10.0 miWest (280°)23.0 mphOvercast
1:35 PM17.6 °F10.4 °F73 %29.94 in5.0 miWest (270°)21.9 mph31.1 mphHaze
1:55 PM19.4 °F10.4 °F68 %29.94 in5.0 miWest (280°)23.0 mph27.6 mphSnowLight Snow
2:15 PM17.6 °F8.6 °F68 %29.95 in7.0 miWest (280°)21.9 mph28.8 mphOvercast
2:35 PM17.6 °F8.6 °F68 %29.96 in5.0 miWNW (290°)25.3 mph28.8 mphHaze
2:55 PM17.6 °F8.6 °F68 %29.96 in3.0 miWest (280°)24.2 mph31.1 mphSnowLight Snow
3:15 PM17.6 °F8.6 °F68 %29.98 in10.0 miWNW (290°)24.2 mph29.9 mphMostly Cloudy
3:35 PM15.8 °F8.6 °F73 %29.98 in7.0 miWNW (290°)20.7 mph29.9 mphMostly Cloudy
3:55 PM15.8 °F6.8 °F68 %30.00 in10.0 miWNW (290°)25.3 mph32.2 mphOvercast
4:15 PM15.8 °F6.8 °F68 %30.00 in2.5 miWNW (290°)25.3 mph31.1 mphSnowLight Snow
4:35 PM14.0 °F6.8 °F73 %30.01 in7.0 miWNW (290°)26.5 mph32.2 mphMostly Cloudy
4:55 PM14.0 °F6.8 °F73 %30.02 in7.0 miWest (280°)23.0 mph34.5 mphMostly Cloudy
5:15 PM12.2 °F6.8 °F79 %30.03 in10.0 miWest (280°)25.3 mph33.4 mphMostly Cloudy
5:35 PM12.2 °F3.2 °F67 %30.04 in10.0 miWest (280°)26.5 mph33.4 mphMostly Cloudy
5:55 PM12.2 °F3.2 °F67 %30.05 in7.0 miWNW (290°)31.1 mph34.5 mphScattered Clouds
6:15 PM10.4 °F3.2 °F73 %30.07 in10.0 miWNW (290°)29.9 mph35.7 mphScattered Clouds
6:35 PM10.4 °F1.4 °F67 %30.08 in10.0 miWNW (290°)31.1 mph34.5 mphClear
6:55 PM10.4 °F1.4 °F67 %30.09 in10.0 miWest (280°)26.5 mph35.7 mphScattered Clouds
7:15 PM10.4 °F1.4 °F67 %30.09 in10.0 miWNW (290°)31.1 mph36.8 mphScattered Clouds
7:35 PM10.4 °F1.4 °F67 %30.10 in7.0 miWNW (290°)33.4 mph39.1 mphMostly Cloudy
7:55 PM8.6 °F1.4 °F73 %30.12 in7.0 miWest (280°)27.6 mph39.1 mphScattered Clouds
8:15 PM8.6 °F-0.4 °F67 %30.13 in10.0 miWest (280°)26.5 mph35.7 mphScattered Clouds
8:35 PM8.6 °F1.4 °F73 %30.14 in10.0 miWest (280°)21.9 mph28.8 mphScattered Clouds
8:55 PM8.6 °F1.4 °F73 %30.15 in7.0 miWNW (290°)24.2 mph29.9 mphMostly Cloudy
9:15 PM8.6 °F1.4 °F73 %30.17 in7.0 miWest (280°)23.0 mph31.1 mphMostly Cloudy
9:35 PM8.6 °F-0.4 °F67 %30.17 in10.0 miWNW (300°)26.5 mph33.4 mphMostly Cloudy
9:55 PM6.8 °F-0.4 °F72 %30.18 in10.0 miWNW (300°)25.3 mph31.1 mphScattered Clouds
10:15 PM6.8 °F-0.4 °F72 %30.19 in7.0 miWNW (290°)25.3 mph31.1 mphScattered Clouds
10:35 PM6.8 °F-0.4 °F72 %30.20 in10.0 miWNW (290°)21.9 mph31.1 mphScattered Clouds
10:55 PM6.8 °F-0.4 °F72 %30.20 in10.0 miWNW (290°)21.9 mph27.6 mphScattered Clouds
11:15 PM6.8 °F-2.2 °F67 %30.21 in10.0 miWNW (290°)21.9 mph26.5 mphScattered Clouds
11:35 PM6.8 °F-2.2 °F67 %30.22 in10.0 miWNW (290°)23.0 mph26.5 mphScattered Clouds
11:55 PM6.8 °F-2.2 °F67 %30.24 in10.0 miWNW (290°)19.6 mphClear
Hourly data recorded from KPNT, located miles away from Fairbury, Illinois







STORIES FROM OUR PARTNERS